Terminal Aerodrome Forecast
Issued by NWS Denver/Boulder, CO

Home | Current Version | Previous Version | Text Only | Print | Product List | Glossary On
Versions: 1 2 3 4 5 6 7 8 9 10 11 12 13 14 15 16 17 18 19 20 21 22 23 24 25 26 27 28 29 30 31 32 33 34 35 36 37 38 39 40 41 42 43 44 45 46 47 48 49 50
000
FTUS45 KBOU 252054 AAA
TAFDEN
TAF AMD
KDEN 252054Z 2521/2624 27013KT P6SM VCTS FEW090 SCT110CB BKN150
      TEMPO 2521/2601 VRB20G35KT -TSRA BKN060CB
     FM260200 24012KT P6SM BKN100 BKN220
     FM260500 20010KT P6SM FEW120 BKN220
     FM261600 02010KT P6SM FEW100 SCT220=

USA.gov is the U.S. government's official web portal to all federal, state and local government web resources and services.